Weather History for Sanford, FL

Change the Weather History Date:

Saturday, February 15, 2014

  Actual Average Record
Temperature  
Mean Temperature 60 °F -  
Max Temperature 70 °F 73 °F 85 °F (1959)
Min Temperature 48 °F 49 °F 31 °F (1971)
Degree Days  
Heating Degree Days 4    
Growing Degree Days 10 (Base 50)    
Moisture  
Dew Point 43 °F    
Average Humidity 63    
Maximum Humidity 94    
Minimum Humidity 21    
Precipitation  
Precipitation 0.01 in - - ()
Sea Level Pressure  
Sea Level Pressure 30.01 in    
Wind  
Wind Speed 10 mph (West)    
Max Wind Speed 21 mph    
Max Gust Speed 31 mph    
Visibility 9 miles    
Events Rain    
Averages and records for this station are not official NWS values.
T = Trace of Precipitation, MM = Missing Value Source: NWS Daily Summary

Daily Weather History Graph

Daily Weather History Graph

Search for Another Location

Airport:

Trip Planner

Search our weather history database for the weather conditions in past years. The results will help you decide how hot, cold, wet, or windy it might be!

Date:

Astronomy

Feb. 15, 2014 Rise Set
Actual Time 7:03 AM EST 6:15 PM EST
Civil Twilight 6:39 AM EST 6:39 PM EST
Nautical Twilight 6:11 AM EST 7:07 PM EST
Astronomical Twilight 5:43 AM EST 7:34 PM EST
Moon 7:05 PM EST (2/15) 7:08 AM EST (2/15)
Length of Visible Light 12h 00m
Length of Day
11h 11m
Full, 100% of the Moon is Illuminated
Feb 15
Full
Feb 22
Last Quarter
Mar 1
New
Mar 8
First Quarter
Mar 16
Full

Hourly Weather History & Observations

Time (EST) Temp. Dew Point Humidity Pressure Visibility Wind Dir Wind Speed Gust Speed Precip Events Conditions
12:53 AM 51.1 °F 45.0 °F 80% 29.94 in 10.0 mi SW 4.6 mph - N/A   Clear
1:53 AM 51.1 °F 46.0 °F 83% 29.94 in 10.0 mi SW 4.6 mph - N/A   Clear
2:53 AM 51.1 °F 46.9 °F 86% 29.94 in 10.0 mi SW 6.9 mph - N/A   Mostly Cloudy
3:53 AM 52.0 °F 48.0 °F 86% 29.92 in 10.0 mi SSW 8.1 mph - N/A   Clear
4:53 AM 54.0 °F 50.0 °F 86% 29.91 in 10.0 mi SW 11.5 mph - N/A   Clear
5:53 AM 55.0 °F 51.1 °F 86% 29.91 in 10.0 mi SW 11.5 mph - N/A   Clear
6:53 AM 55.9 °F 52.0 °F 87% 29.91 in 10.0 mi SW 12.7 mph - N/A   Clear
7:53 AM 60.1 °F 55.0 °F 83% 29.93 in 10.0 mi WSW 18.4 mph 25.3 mph N/A   Mostly Cloudy
8:22 AM 59.0 °F 55.4 °F 88% 29.96 in 4.0 mi West 12.7 mph - 0.00 in Rain Light Rain
8:34 AM 59.0 °F 55.4 °F 88% 29.98 in 4.0 mi WNW 13.8 mph 20.7 mph 0.01 in Rain Light Rain
8:40 AM 57.2 °F 55.4 °F 94% 29.99 in 2.0 mi WNW 20.7 mph 31.1 mph 0.01 in Rain Light Rain
8:53 AM 57.9 °F 55.0 °F 90% 29.99 in 10.0 mi WNW 13.8 mph - 0.01 in   Overcast
9:13 AM 57.2 °F 51.8 °F 82% 30.00 in 10.0 mi NW 13.8 mph - N/A   Overcast
9:53 AM 59.0 °F 50.0 °F 72% 30.00 in 10.0 mi WNW 9.2 mph - N/A   Mostly Cloudy
10:53 AM 62.1 °F 41.0 °F 46% 30.03 in 10.0 mi WNW 15.0 mph - N/A   Partly Cloudy
11:53 AM 64.9 °F 36.0 °F 34% 30.03 in 10.0 mi West 19.6 mph 24.2 mph N/A   Clear
12:53 PM 66.9 °F 30.9 °F 26% 30.01 in 10.0 mi West 18.4 mph 25.3 mph N/A   Clear
1:53 PM 70.0 °F 30.9 °F 24% 30.00 in 10.0 mi West 17.3 mph 21.9 mph N/A   Clear
2:53 PM 70.0 °F 28.0 °F 21% 30.01 in 10.0 mi WNW 11.5 mph 21.9 mph N/A   Clear
3:53 PM 70.0 °F 28.0 °F 21% 30.02 in 10.0 mi WNW 12.7 mph - N/A   Clear
4:53 PM 69.1 °F 30.9 °F 24% 30.04 in 10.0 mi WNW 11.5 mph - N/A   Clear
5:53 PM 64.9 °F 28.0 °F 25% 30.07 in 10.0 mi NW 10.4 mph - N/A   Clear
6:53 PM 60.1 °F 35.1 °F 39% 30.10 in 10.0 mi NNW 6.9 mph - N/A   Clear
7:53 PM 57.0 °F 34.0 °F 42% 30.13 in 10.0 mi NNW 5.8 mph - N/A   Clear
8:53 PM 51.1 °F 36.0 °F 56% 30.14 in 10.0 mi West 9.2 mph - N/A   Clear
9:53 PM 51.1 °F 43.0 °F 74% 30.15 in 10.0 mi WNW 8.1 mph - N/A   Clear
10:53 PM 51.1 °F 43.0 °F 74% 30.16 in 10.0 mi NW 9.2 mph - N/A   Clear
11:53 PM 48.0 °F 42.1 °F 80% 30.15 in 10.0 mi WNW 6.9 mph - N/A   Clear